Location: Champignolles
(47.0543°N, 4.5663°E)
Time: 14:35:08
(UTC+00:00)

NOSS 3-3 (A) - Pass Details

Date: 30 November 2020
Orbit: 818 x 1394 km, 63.4° (Epoch: 22 January)

Event Time Altitude Azimuth Distance (km) Brightness Sun altitude
Rises 18:16:01 0° 320° (NW) 3,934 7.6 -23.3°
Reaches altitude 10° 18:18:34 10° 321° (NW) 3,051 7.0 -23.8°
Maximum altitude 18:26:02 78° 49° (NE) 1,291 4.4 -25.0°
Enters shadow 18:29:58 35° 130° (SE) 1,995 5.2 -25.7°
